| time (UTC) | temp F | wind direction | speed MPH | gust MPH | rain 1hr in | rain 24hr in | rain mn in | humidity % | barometer mb |
| 20260906022537 | 61 | 287 | 2.0 | 6.0 | 0.00 | 0.00 | 0.00 | 86 | 1013.4 |
| 20260906022040 | 61 | 267 | 2.0 | 6.0 | 0.00 | 0.00 | 0.00 | 86 | 1013.4 |
| 20260906021551 | 61 | 255 | 2.0 | 6.0 | 0.00 | 0.00 | 0.00 | 86 | 1013.4 |
| 20260906021037 | 61 | 272 | 2.0 | 7.0 | 0.00 | 0.00 | 0.00 | 85 | 1013.4 |
| 20260906020537 | 61 | 284 | 2.0 | 9.0 | 0.00 | 0.00 | 0.00 | 85 | 1013.5 |
| 20260906015537 | 61 | 289 | 2.0 | 8.0 | 0.00 | 0.00 | 0.00 | 85 | 1013.5 |
| 20260906015038 | 62 | 278 | 3.0 | 6.0 | 0.00 | 0.00 | 0.00 | 85 | 1013.5 |
| 20260906014602 | 62 | 300 | 2.0 | 8.0 | 0.00 | 0.00 | 0.00 | 85 | 1013.5 |
| 20260906014038 | 62 | 279 | 3.0 | 9.0 | 0.00 | 0.00 | 0.00 | 85 | 1013.6 |
| 20260906013537 | 62 | 288 | 2.0 | 9.0 | 0.00 | 0.00 | 0.00 | 85 | 1013.5 |
| 20260906013052 | 62 | 279 | 4.0 | 8.0 | 0.00 | 0.00 | 0.00 | 84 | 1013.5 |
| 20260906012536 | 62 | 293 | 3.0 | 9.0 | 0.00 | 0.00 | 0.00 | 84 | 1013.5 |
| 20260906012036 | 62 | 271 | 4.0 | 9.0 | 0.00 | 0.00 | 0.00 | 84 | 1013.5 |
| 20260906011552 | 63 | 284 | 3.0 | 8.0 | 0.00 | 0.00 | 0.00 | 83 | 1013.6 |
| 20260906011036 | 63 | 283 | 2.0 | 7.0 | 0.00 | 0.00 | 0.00 | 83 | 1013.6 |
| 20260906010535 | 63 | 269 | 2.0 | 6.0 | 0.00 | 0.00 | 0.00 | 84 | 1013.6 |
| 20260906010059 | 63 | 267 | 2.0 | 6.0 | 0.00 | 0.00 | 0.00 | 84 | 1013.7 |
| 20260906005536 | 63 | 275 | 2.0 | 6.0 | 0.00 | 0.00 | 0.00 | 84 | 1013.7 |
| 20260906005038 | 63 | 278 | 2.0 | 6.0 | 0.00 | 0.00 | 0.00 | 83 | 1013.7 |
| 20260906004549 | 63 | 269 | 2.0 | 6.0 | 0.00 | 0.00 | 0.00 | 83 | 1013.8 |
| 20260906004036 | 63 | 272 | 2.0 | 7.0 | 0.00 | 0.00 | 0.00 | 83 | 1013.7 |
| 20260906003537 | 63 | 294 | 3.0 | 7.0 | 0.00 | 0.00 | 0.00 | 82 | 1013.8 |
| 20260906003110 | 64 | 268 | 3.0 | 7.0 | 0.00 | 0.00 | 0.00 | 82 | 1013.8 |
| 20260906002536 | 64 | 268 | 3.0 | 7.0 | 0.00 | 0.00 | 0.00 | 82 | 1013.8 |
| 20260906002038 | 63 | 296 | 3.0 | 6.0 | 0.00 | 0.00 | 0.00 | 82 | 1013.8 |
| 20260906001553 | 63 | 287 | 2.0 | 6.0 | 0.00 | 0.00 | 0.00 | 82 | 1013.8 |
| 20260906001036 | 64 | 252 | 2.0 | 6.0 | 0.00 | 0.00 | 0.00 | 81 | 1013.8 |
| 20260906000536 | 64 | 236 | 3.0 | 8.0 | 0.00 | 0.00 | 0.00 | 80 | 1013.8 |
| 20260905235539 | 65 | 315 | 2.0 | 8.0 | 0.00 | 0.00 | 0.00 | 81 | 1013.7 |
| 20260905235041 | 65 | 262 | 3.0 | 8.0 | 0.00 | 0.00 | 0.00 | 79 | 1013.8 |
| 20260905234606 | 64 | 287 | 3.0 | 8.0 | 0.00 | 0.00 | 0.00 | 81 | 1013.8 |
| 20260905234037 | 64 | 271 | 2.0 | 8.0 | 0.00 | 0.00 | 0.00 | 80 | 1013.8 |
| 20260905233537 | 64 | 285 | 3.0 | 7.0 | 0.00 | 0.00 | 0.00 | 79 | 1013.9 |
| 20260905233053 | 64 | 290 | 3.0 | 7.0 | 0.00 | 0.00 | 0.00 | 79 | 1013.9 |
| 20260905232536 | 65 | 265 | 2.0 | 7.0 | 0.00 | 0.00 | 0.00 | 80 | 1014.0 |
| 20260905232035 | 64 | 294 | 3.0 | 7.0 | 0.00 | 0.00 | 0.00 | 81 | 1014.1 |
| 20260905231555 | 65 | 240 | 3.0 | 7.0 | 0.00 | 0.00 | 0.00 | 80 | 1014.2 |
| 20260905231034 | 66 | 262 | 3.0 | 8.0 | 0.00 | 0.00 | 0.00 | 80 | 1014.2 |
| 20260905230539 | 65 | 286 | 3.0 | 8.0 | 0.00 | 0.00 | 0.00 | 81 | 1014.1 |
| 20260905230053 | 65 | 269 | 3.0 | 7.0 | 0.00 | 0.00 | 0.00 | 80 | 1014.1 |
| 20260905225537 | 65 | 266 | 3.0 | 7.0 | 0.00 | 0.00 | 0.00 | 81 | 1014.1 |
| 20260905225037 | 65 | 233 | 3.0 | 8.0 | 0.00 | 0.00 | 0.00 | 82 | 1014.2 |
| 20260905224556 | 65 | 284 | 3.0 | 8.0 | 0.00 | 0.00 | 0.00 | 83 | 1014.1 |
| 20260905224036 | 65 | 270 | 3.0 | 8.0 | 0.00 | 0.00 | 0.00 | 82 | 1014.1 |
| 20260905223536 | 64 | 267 | 4.0 | 8.0 | 0.00 | 0.00 | 0.00 | 82 | 1014.2 |
| 20260905223055 | 65 | 279 | 3.0 | 8.0 | 0.00 | 0.00 | 0.00 | 81 | 1014.1 |
| 20260905222538 | 64 | 284 | 3.0 | 8.0 | 0.00 | 0.00 | 0.00 | 81 | 1014.2 |
| 20260905222037 | 65 | 241 | 3.0 | 7.0 | 0.00 | 0.00 | 0.00 | 81 | 1014.2 |
| 20260905221552 | 65 | 246 | 2.0 | 8.0 | 0.00 | 0.00 | 0.00 | 79 | 1014.3 |
| 20260905221036 | 65 | 269 | 3.0 | 8.0 | 0.00 | 0.00 | 0.00 | 81 | 1014.3 |
| 20260905220536 | 65 | 257 | 3.0 | 8.0 | 0.00 | 0.00 | 0.00 | 81 | 1014.3 |
| 20260905220051 | 65 | 270 | 3.0 | 7.0 | 0.00 | 0.00 | 0.00 | 79 | 1014.4 |
| 20260905215536 | 66 | 311 | 1.0 | 7.0 | 0.00 | 0.00 | 0.00 | 80 | 1014.5 |
| 20260905215036 | 66 | 282 | 2.0 | 8.0 | 0.00 | 0.00 | 0.00 | 80 | 1014.5 |
| 20260905214558 | 65 | 251 | 3.0 | 8.0 | 0.00 | 0.00 | 0.00 | 81 | 1014.6 |
| 20260905214037 | 66 | 296 | 4.0 | 8.0 | 0.00 | 0.00 | 0.00 | 79 | 1014.7 |
| 20260905213537 | 65 | 277 | 3.0 | 8.0 | 0.00 | 0.00 | 0.00 | 79 | 1014.6 |
| 20260905213054 | 65 | 259 | 2.0 | 7.0 | 0.00 | 0.00 | 0.00 | 80 | 1014.6 |
| 20260905212539 | 64 | 311 | 3.0 | 7.0 | 0.00 | 0.00 | 0.00 | 80 | 1014.7 |
| 20260905212037 | 64 | 290 | 3.0 | 7.0 | 0.00 | 0.00 | 0.00 | 79 | 1014.7 |
| 20260905211550 | 65 | 222 | 2.0 | 6.0 | 0.00 | 0.00 | 0.00 | 80 | 1014.7 |
| 20260905211033 | 65 | 238 | 2.0 | 8.0 | 0.00 | 0.00 | 0.00 | 79 | 1014.7 |
| 20260905210539 | 65 | 277 | 2.0 | 8.0 | 0.00 | 0.00 | 0.00 | 78 | 1014.7 |
| 20260905210046 | 65 | 300 | 3.0 | 8.0 | 0.00 | 0.00 | 0.00 | 78 | 1014.7 |
| 20260905205536 | 65 | 273 | 2.0 | 6.0 | 0.00 | 0.00 | 0.00 | 77 | 1014.7 |
| 20260905205037 | 65 | 309 | 2.0 | 8.0 | 0.00 | 0.00 | 0.00 | 79 | 1014.7 |
| 20260905204600 | 65 | 263 | 3.0 | 8.0 | 0.00 | 0.00 | 0.00 | 79 | 1014.7 |
| 20260905204038 | 64 | 246 | 3.0 | 7.0 | 0.00 | 0.00 | 0.00 | 80 | 1014.6 |
| 20260905203534 | 65 | 263 | 3.0 | 8.0 | 0.00 | 0.00 | 0.00 | 79 | 1014.5 |
| 20260905203054 | 64 | 237 | 3.0 | 8.0 | 0.00 | 0.00 | 0.00 | 80 | 1014.6 |
| 20260905202536 | 64 | 280 | 3.0 | 7.0 | 0.00 | 0.00 | 0.00 | 78 | 1014.5 |
| 20260905202036 | 64 | 289 | 3.0 | 7.0 | 0.00 | 0.00 | 0.00 | 78 | 1014.4 |
| 20260905201554 | 64 | 225 | 2.0 | 4.0 | 0.00 | 0.00 | 0.00 | 76 | 1014.3 |
| 20260905201036 | 64 | 272 | 2.0 | 8.0 | 0.00 | 0.00 | 0.00 | 79 | 1014.2 |
| 20260905200534 | 64 | 223 | 2.0 | 8.0 | 0.00 | 0.00 | 0.00 | 79 | 1014.2 |
| 20260905200100 | 64 | 213 | 3.0 | 7.0 | 0.00 | 0.00 | 0.00 | 79 | 1014.4 |
| 20260905195537 | 64 | 280 | 3.0 | 8.0 | 0.00 | 0.00 | 0.00 | 79 | 1014.4 |
| 20260905195033 | 64 | 287 | 3.0 | 8.0 | 0.00 | 0.00 | 0.00 | 79 | 1014.3 |
| 20260905194551 | 64 | 220 | 2.0 | 8.0 | 0.00 | 0.00 | 0.00 | 79 | 1014.4 |
| 20260905194038 | 64 | 202 | 3.0 | 8.0 | 0.00 | 0.00 | 0.00 | 80 | 1014.4 |
| 20260905193532 | 64 | 284 | 2.0 | 7.0 | 0.00 | 0.00 | 0.00 | 81 | 1014.4 |
| 20260905193107 | 64 | 277 | 2.0 | 7.0 | 0.00 | 0.00 | 0.00 | 82 | 1014.5 |
| 20260905192537 | 63 | 299 | 3.0 | 7.0 | 0.00 | 0.00 | 0.00 | 81 | 1014.5 |
| 20260905192036 | 64 | 252 | 2.0 | 6.0 | 0.00 | 0.00 | 0.00 | 81 | 1014.4 |
| 20260905191558 | 63 | 234 | 2.0 | 6.0 | 0.00 | 0.00 | 0.00 | 81 | 1014.4 |
| 20260905191033 | 63 | 170 | 2.0 | 6.0 | 0.00 | 0.00 | 0.00 | 81 | 1014.4 |
| 20260905190536 | 63 | 227 | 2.0 | 5.0 | 0.00 | 0.00 | 0.00 | 82 | 1014.5 |
| 20260905190052 | 63 | 221 | 2.0 | 5.0 | 0.00 | 0.00 | 0.00 | 83 | 1014.4 |
| 20260905185543 | 63 | 228 | 2.0 | 6.0 | 0.00 | 0.00 | 0.00 | 83 | 1014.5 |
| 20260905185034 | 63 | 244 | 2.0 | 6.0 | 0.00 | 0.00 | 0.00 | 83 | 1014.5 |
| 20260905184609 | 63 | 227 | 3.0 | 7.0 | 0.00 | 0.00 | 0.00 | 83 | 1014.4 |
| 20260905184038 | 64 | 271 | 2.0 | 7.0 | 0.00 | 0.00 | 0.00 | 83 | 1014.3 |
| 20260905183534 | 63 | 273 | 2.0 | 7.0 | 0.00 | 0.00 | 0.00 | 85 | 1014.4 |
| 20260905183058 | 63 | 196 | 2.0 | 5.0 | 0.00 | 0.00 | 0.00 | 84 | 1014.4 |
| 20260905182533 | 63 | 223 | 1.0 | 5.0 | 0.00 | 0.00 | 0.00 | 85 | 1014.3 |
| 20260905182037 | 63 | 217 | 2.0 | 5.0 | 0.00 | 0.00 | 0.00 | 85 | 1014.3 |
| 20260905181551 | 63 | 234 | 2.0 | 5.0 | 0.00 | 0.00 | 0.00 | 85 | 1014.2 |
| 20260905181037 | 63 | 224 | 2.0 | 5.0 | 0.00 | 0.00 | 0.00 | 85 | 1014.3 |
| 20260905180536 | 63 | 221 | 1.0 | 5.0 | 0.00 | 0.00 | 0.00 | 84 | 1014.3 |
| 20260905180056 | 63 | 242 | 1.0 | 6.0 | 0.00 | 0.00 | 0.00 | 86 | 1014.3 |
| 20260905175533 | 62 | 213 | 3.0 | 6.0 | 0.00 | 0.00 | 0.00 | 85 | 1014.2 |
| 20260905175033 | 62 | 246 | 1.0 | 5.0 | 0.00 | 0.00 | 0.00 | 85 | 1014.1 |
| 20260905174556 | 62 | 212 | 2.0 | 5.0 | 0.00 | 0.00 | 0.00 | 85 | 1014.1 |
| 20260905174037 | 62 | 223 | 2.0 | 4.0 | 0.00 | 0.00 | 0.00 | 85 | 1014.2 |
| 20260905173537 | 62 | 245 | 2.0 | 4.0 | 0.00 | 0.00 | 0.00 | 85 | 1014.1 |
| 20260905173052 | 62 | 184 | 2.0 | 4.0 | 0.00 | 0.00 | 0.00 | 87 | 1014.0 |
| 20260905172536 | 62 | 236 | 2.0 | 6.0 | 0.00 | 0.00 | 0.00 | 86 | 1014.0 |
| 20260905172036 | 62 | 238 | 2.0 | 6.0 | 0.00 | 0.00 | 0.00 | 86 | 1014.0 |
| 20260905171551 | 62 | 283 | 2.0 | 6.0 | 0.00 | 0.00 | 0.00 | 86 | 1014.0 |
| 20260905171036 | 62 | 255 | 2.0 | 6.0 | 0.00 | 0.00 | 0.00 | 86 | 1014.0 |
| 20260905170538 | 62 | 205 | 2.0 | 4.0 | 0.00 | 0.00 | 0.00 | 87 | 1013.9 |
| 20260905170056 | 62 | 245 | 1.0 | 4.0 | 0.00 | 0.00 | 0.00 | 88 | 1013.8 |
| 20260905165537 | 61 | 239 | 1.0 | 4.0 | 0.00 | 0.00 | 0.00 | 89 | 1013.8 |
| 20260905165040 | 61 | 284 | 1.0 | 4.0 | 0.00 | 0.00 | 0.00 | 90 | 1013.7 |
| 20260905164555 | 61 | 279 | 1.0 | 4.0 | 0.00 | 0.00 | 0.00 | 91 | 1013.6 |
| 20260905164037 | 61 | 281 | 1.0 | 4.0 | 0.00 | 0.00 | 0.00 | 92 | 1013.7 |
| 20260905163536 | 60 | 261 | 1.0 | 4.0 | 0.00 | 0.00 | 0.00 | 92 | 1013.6 |
| 20260905163053 | 60 | 286 | 1.0 | 3.0 | 0.00 | 0.00 | 0.00 | 93 | 1013.6 |
| 20260905162538 | 60 | 202 | 0.0 | 2.0 | 0.00 | 0.00 | 0.00 | 93 | 1013.6 |
| 20260905162037 | 60 | 201 | 0.0 | 4.0 | 0.00 | 0.00 | 0.00 | 93 | 1013.5 |
| 20260905161551 | 59 | 201 | 1.0 | 4.0 | 0.00 | 0.00 | 0.00 | 93 | 1013.6 |
| 20260905161036 | 60 | 221 | 1.0 | 3.0 | 0.00 | 0.00 | 0.00 | 93 | 1013.5 |
| 20260905160537 | 59 | 221 | 2.0 | 3.0 | 0.00 | 0.00 | 0.00 | 93 | 1013.4 |
| 20260905160051 | 59 | 0 | 1.0 | 3.0 | 0.00 | 0.00 | 0.00 | 93 | 1013.4 |
| 20260905155539 | 59 | 0 | 1.0 | 3.0 | 0.00 | 0.00 | 0.00 | 93 | 1013.4 |
| 20260905155039 | 59 | 0 | 1.0 | 4.0 | 0.00 | 0.00 | 0.00 | 93 | 1013.4 |
| 20260905154600 | 59 | 161 | 1.0 | 4.0 | 0.00 | 0.00 | 0.00 | 93 | 1013.5 |
| 20260905154036 | 58 | 203 | 0.0 | 3.0 | 0.00 | 0.00 | 0.00 | 93 | 1013.5 |
| 20260905153536 | 58 | 194 | 0.0 | 3.0 | 0.00 | 0.00 | 0.00 | 93 | 1013.5 |
| 20260905153104 | 58 | 192 | 0.0 | 2.0 | 0.00 | 0.00 | 0.00 | 93 | 1013.5 |
| 20260905152536 | 58 | 192 | 1.0 | 2.0 | 0.00 | 0.00 | 0.00 | 93 | 1013.5 |
| 20260905152036 | 58 | 192 | 1.0 | 2.0 | 0.00 | 0.00 | 0.00 | 93 | 1013.5 |
| 20260905151558 | 58 | 192 | 1.0 | 2.0 | 0.00 | 0.00 | 0.00 | 93 | 1013.4 |
| 20260905151035 | 58 | 0 | 0.0 | 2.0 | 0.00 | 0.00 | 0.00 | 93 | 1013.4 |
| 20260905150534 | 58 | 0 | 1.0 | 3.0 | 0.00 | 0.00 | 0.00 | 93 | 1013.4 |
| 20260905150058 | 57 | 192 | 1.0 | 3.0 | 0.00 | 0.00 | 0.00 | 93 | 1013.3 |
| 20260905145537 | 57 | 192 | 1.0 | 3.0 | 0.00 | 0.00 | 0.00 | 93 | 1013.3 |
| 20260905145036 | 57 | 0 | 0.0 | 3.0 | 0.00 | 0.00 | 0.00 | 93 | 1013.3 |
| 20260905144553 | 57 | 192 | 2.0 | 3.0 | 0.00 | 0.00 | 0.00 | 93 | 1013.3 |
| 20260905144039 | 57 | 192 | 1.0 | 3.0 | 0.00 | 0.00 | 0.00 | 93 | 1013.3 |
| 20260905143536 | 57 | 192 | 1.0 | 3.0 | 0.00 | 0.00 | 0.00 | 93 | 1013.3 |
| 20260905143110 | 57 | 277 | 0.0 | 2.0 | 0.00 | 0.00 | 0.00 | 93 | 1013.2 |
| 20260905142533 | 57 | 277 | 0.0 | 1.0 | 0.00 | 0.00 | 0.00 | 93 | 1013.2 |
| 20260905142036 | 57 | 277 | 0.0 | 1.0 | 0.00 | 0.00 | 0.00 | 93 | 1013.1 |
| 20260905141551 | 57 | 0 | 0.0 | 2.0 | 0.00 | 0.00 | 0.00 | 93 | 1013.1 |
| 20260905141035 | 57 | 0 | 0.0 | 2.0 | 0.00 | 0.00 | 0.00 | 93 | 1013.1 |
| 20260905140536 | 57 | 277 | 0.0 | 2.0 | 0.00 | 0.00 | 0.00 | 93 | 1013.1 |
| 20260905140104 | 57 | 0 | 0.0 | 2.0 | 0.00 | 0.00 | 0.00 | 93 | 1013.0 |
| 20260905135536 | 57 | 0 | 0.0 | 2.0 | 0.00 | 0.00 | 0.00 | 93 | 1012.9 |
| 20260905135038 | 57 | 277 | 0.0 | 2.0 | 0.00 | 0.00 | 0.00 | 93 | 1012.9 |
| 20260905134555 | 58 | 0 | 0.0 | 1.0 | 0.00 | 0.00 | 0.00 | 93 | 1012.9 |
| 20260905134036 | 57 | 0 | 0.0 | 1.0 | 0.00 | 0.00 | 0.00 | 93 | 1012.9 |
| 20260905133536 | 57 | 0 | 0.0 | 1.0 | 0.00 | 0.00 | 0.00 | 93 | 1012.9 |
| 20260905133055 | 57 | 0 | 0.0 | 1.0 | 0.00 | 0.00 | 0.00 | 93 | 1012.9 |
| 20260905132535 | 57 | 0 | 0.0 | 1.0 | 0.00 | 0.00 | 0.00 | 93 | 1012.9 |
| 20260905132043 | 57 | 0 | 0.0 | 1.0 | 0.00 | 0.00 | 0.00 | 93 | 1012.8 |
| 20260905131555 | 58 | 0 | 0.0 | 2.0 | 0.00 | 0.00 | 0.00 | 93 | 1012.8 |
| 20260905131037 | 58 | 0 | 0.0 | 2.0 | 0.00 | 0.00 | 0.00 | 93 | 1012.9 |
| 20260905130537 | 58 | 0 | 0.0 | 2.0 | 0.00 | 0.00 | 0.00 | 93 | 1012.8 |
| 20260905130051 | 58 | 0 | 0.0 | 2.0 | 0.00 | 0.00 | 0.00 | 93 | 1012.9 |
| 20260905125536 | 58 | 0 | 0.0 | 2.0 | 0.00 | 0.00 | 0.00 | 93 | 1012.9 |
| 20260905125036 | 58 | 0 | 0.0 | 2.0 | 0.00 | 0.00 | 0.00 | 93 | 1013.0 |
| 20260905124550 | 58 | 277 | 0.0 | 2.0 | 0.00 | 0.00 | 0.00 | 93 | 1013.0 |
| 20260905124039 | 58 | 0 | 0.0 | 2.0 | 0.00 | 0.00 | 0.00 | 93 | 1013.0 |
| 20260905123545 | 58 | 0 | 0.0 | 2.0 | 0.00 | 0.00 | 0.00 | 93 | 1013.0 |
| 20260905123058 | 58 | 277 | 0.0 | 3.0 | 0.00 | 0.00 | 0.00 | 93 | 1013.0 |
| 20260905122538 | 58 | 0 | 1.0 | 3.0 | 0.00 | 0.00 | 0.00 | 93 | 1013.1 |
| 20260905122039 | 58 | 286 | 0.0 | 3.0 | 0.00 | 0.00 | 0.00 | 93 | 1013.1 |
| 20260905121553 | 58 | 286 | 1.0 | 3.0 | 0.00 | 0.00 | 0.00 | 93 | 1013.0 |
| 20260905121037 | 58 | 281 | 1.0 | 4.0 | 0.00 | 0.00 | 0.00 | 93 | 1013.1 |
| 20260905120540 | 58 | 302 | 1.0 | 4.0 | 0.00 | 0.00 | 0.00 | 93 | 1013.0 |
| 20260905120107 | 58 | 0 | 0.0 | 4.0 | 0.00 | 0.00 | 0.00 | 93 | 1013.0 |
| 20260905115537 | 58 | 300 | 1.0 | 4.0 | 0.00 | 0.00 | 0.00 | 93 | 1012.9 |
| 20260905115038 | 58 | 265 | 1.0 | 3.0 | 0.00 | 0.00 | 0.00 | 93 | 1013.0 |
| 20260905114550 | 58 | 288 | 2.0 | 4.0 | 0.00 | 0.00 | 0.00 | 93 | 1013.0 |
| 20260905114037 | 58 | 271 | 2.0 | 4.0 | 0.00 | 0.00 | 0.00 | 93 | 1013.0 |
| 20260905113538 | 58 | 298 | 1.0 | 6.0 | 0.00 | 0.00 | 0.00 | 93 | 1013.1 |
| 20260905113057 | 59 | 264 | 1.0 | 6.0 | 0.00 | 0.00 | 0.00 | 93 | 1013.1 |
| 20260905112538 | 58 | 244 | 1.0 | 3.0 | 0.00 | 0.00 | 0.00 | 93 | 1013.1 |
| 20260905112038 | 58 | 263 | 1.0 | 3.0 | 0.00 | 0.00 | 0.00 | 93 | 1013.1 |
| 20260905111637 | 58 | 0 | 1.0 | 3.0 | 0.00 | 0.00 | 0.00 | 93 | 1013.2 |
| 20260905111038 | 58 | 273 | 1.0 | 3.0 | 0.00 | 0.00 | 0.00 | 93 | 1013.1 |
| 20260905110537 | 58 | 262 | 0.0 | 2.0 | 0.00 | 0.00 | 0.00 | 93 | 1013.1 |
| 20260905110051 | 58 | 0 | 0.0 | 2.0 | 0.00 | 0.00 | 0.00 | 93 | 1013.1 |
| 20260905105536 | 58 | 262 | 1.0 | 2.0 | 0.00 | 0.00 | 0.00 | 93 | 1013.1 |
| 20260905105038 | 58 | 281 | 0.0 | 2.0 | 0.00 | 0.00 | 0.00 | 93 | 1013.1 |
| 20260905104548 | 58 | 281 | 0.0 | 3.0 | 0.00 | 0.00 | 0.00 | 93 | 1013.1 |
| 20260905104038 | 58 | 274 | 1.0 | 3.0 | 0.00 | 0.00 | 0.00 | 93 | 1013.1 |
| 20260905103538 | 58 | 281 | 1.0 | 3.0 | 0.00 | 0.00 | 0.00 | 93 | 1013.1 |
| 20260905103051 | 58 | 273 | 1.0 | 3.0 | 0.00 | 0.00 | 0.00 | 93 | 1013.2 |
| 20260905102538 | 59 | 261 | 1.0 | 3.0 | 0.00 | 0.00 | 0.00 | 93 | 1013.2 |
| 20260905102037 | 59 | 263 | 1.0 | 2.0 | 0.00 | 0.00 | 0.00 | 93 | 1013.3 |
| 20260905101600 | 59 | 0 | 1.0 | 2.0 | 0.00 | 0.00 | 0.00 | 93 | 1013.3 |
| 20260905101037 | 59 | 248 | 0.0 | 3.0 | 0.00 | 0.00 | 0.00 | 93 | 1013.4 |
| 20260905100537 | 59 | 248 | 1.0 | 3.0 | 0.00 | 0.00 | 0.00 | 93 | 1013.4 |
| 20260905100107 | 59 | 274 | 1.0 | 3.0 | 0.00 | 0.00 | 0.00 | 93 | 1013.4 |
| 20260905095537 | 59 | 297 | 1.0 | 3.0 | 0.00 | 0.01 | 0.00 | 93 | 1013.4 |
| 20260905095037 | 59 | 283 | 0.0 | 4.0 | 0.00 | 0.01 | 0.00 | 93 | 1013.4 |
| 20260905094552 | 59 | 245 | 0.0 | 4.0 | 0.00 | 0.01 | 0.00 | 93 | 1013.4 |
| 20260905094040 | 59 | 304 | 1.0 | 4.0 | 0.00 | 0.01 | 0.00 | 93 | 1013.4 |
| 20260905093540 | 59 | 263 | 1.0 | 4.0 | 0.00 | 0.01 | 0.00 | 93 | 1013.5 |
| 20260905093057 | 59 | 280 | 1.0 | 4.0 | 0.00 | 0.01 | 0.00 | 93 | 1013.5 |
| 20260905092538 | 59 | 325 | 1.0 | 4.0 | 0.00 | 0.01 | 0.00 | 93 | 1013.5 |
| 20260905092038 | 59 | 273 | 0.0 | 6.0 | 0.00 | 0.01 | 0.00 | 93 | 1013.6 |
| 20260905091604 | 59 | 268 | 1.0 | 6.0 | 0.00 | 0.01 | 0.00 | 93 | 1013.7 |
| 20260905091037 | 59 | 286 | 1.0 | 4.0 | 0.00 | 0.01 | 0.00 | 93 | 1013.9 |
| 20260905090539 | 59 | 0 | 0.0 | 7.0 | 0.00 | 0.01 | 0.00 | 93 | 1013.9 |
| 20260905090054 | 59 | 0 | 2.0 | 7.0 | 0.00 | 0.01 | 0.00 | 93 | 1013.8 |
| 20260905085541 | 59 | 244 | 1.0 | 4.0 | 0.00 | 0.01 | 0.00 | 93 | 1013.8 |
| 20260905085037 | 59 | 242 | 1.0 | 2.0 | 0.00 | 0.01 | 0.00 | 93 | 1013.8 |
| 20260905084553 | 59 | 0 | 1.0 | 3.0 | 0.00 | 0.01 | 0.00 | 93 | 1013.9 |
| 20260905084038 | 59 | 246 | 1.0 | 3.0 | 0.00 | 0.01 | 0.00 | 93 | 1013.9 |
| 20260905083538 | 59 | 226 | 1.0 | 3.0 | 0.00 | 0.01 | 0.00 | 93 | 1013.8 |
| 20260905083104 | 59 | 226 | 1.0 | 2.0 | 0.00 | 0.01 | 0.00 | 93 | 1013.8 |
| 20260905082537 | 59 | 240 | 1.0 | 3.0 | 0.00 | 0.01 | 0.00 | 93 | 1013.9 |
| 20260905082037 | 59 | 240 | 1.0 | 3.0 | 0.00 | 0.01 | 0.00 | 93 | 1013.9 |
| 20260905081552 | 59 | 0 | 1.0 | 3.0 | 0.00 | 0.01 | 0.00 | 93 | 1013.8 |
| 20260905081038 | 59 | 240 | 1.0 | 3.0 | 0.00 | 0.01 | 0.00 | 93 | 1013.8 |
| 20260905080538 | 59 | 235 | 1.0 | 3.0 | 0.00 | 0.01 | 0.00 | 93 | 1013.7 |
| 20260905075540 | 59 | 235 | 1.0 | 3.0 | 0.00 | 0.01 | 0.00 | 93 | 1013.7 |
| 20260905075037 | 59 | 235 | 1.0 | 3.0 | 0.00 | 0.01 | 0.00 | 93 | 1013.7 |
| 20260905074553 | 59 | 235 | 1.0 | 3.0 | 0.00 | 0.01 | 0.00 | 93 | 1013.8 |
| 20260905074038 | 59 | 235 | 1.0 | 3.0 | 0.00 | 0.01 | 0.00 | 93 | 1013.8 |
| 20260905073537 | 59 | 241 | 1.0 | 3.0 | 0.00 | 0.01 | 0.00 | 93 | 1013.7 |
| 20260905073053 | 59 | 238 | 2.0 | 3.0 | 0.00 | 0.01 | 0.00 | 93 | 1013.7 |
| 20260905072540 | 59 | 238 | 1.0 | 3.0 | 0.00 | 0.01 | 0.00 | 93 | 1013.6 |
| 20260905072037 | 59 | 237 | 1.0 | 3.0 | 0.00 | 0.01 | 0.00 | 93 | 1013.6 |
| 20260905071555 | 59 | 259 | 1.0 | 3.0 | 0.00 | 0.01 | 0.00 | 92 | 1013.7 |
| 20260905071038 | 59 | 259 | 1.0 | 3.0 | 0.00 | 0.01 | 0.00 | 92 | 1013.7 |
| 20260905070537 | 59 | 0 | 0.0 | 3.0 | 0.00 | 0.01 | 0.00 | 92 | 1013.6 |
| 20260905070101 | 59 | 259 | 1.0 | 3.0 | 0.00 | 0.01 | 0.00 | 92 | 1013.6 |
| 20260905065537 | 59 | 259 | 1.0 | 2.0 | 0.00 | 0.01 | 0.01 | 92 | 1013.6 |
| 20260905065037 | 59 | 259 | 0.0 | 2.0 | 0.00 | 0.01 | 0.01 | 92 | 1013.6 |
| 20260905064553 | 59 | 259 | 1.0 | 3.0 | 0.00 | 0.01 | 0.01 | 92 | 1013.6 |
| 20260905064037 | 59 | 259 | 1.0 | 3.0 | 0.00 | 0.01 | 0.01 | 92 | 1013.6 |
| 20260905063537 | 59 | 259 | 1.0 | 2.0 | 0.00 | 0.01 | 0.01 | 92 | 1013.6 |
| 20260905063100 | 59 | 254 | 1.0 | 3.0 | 0.00 | 0.01 | 0.01 | 92 | 1013.7 |
| 20260905062536 | 59 | 249 | 0.0 | 3.0 | 0.00 | 0.01 | 0.01 | 92 | 1013.7 |
| 20260905062037 | 59 | 0 | 1.0 | 3.0 | 0.00 | 0.01 | 0.01 | 92 | 1013.7 |
| 20260905061608 | 59 | 273 | 1.0 | 3.0 | 0.00 | 0.01 | 0.01 | 92 | 1013.6 |
| 20260905061036 | 59 | 255 | 1.0 | 3.0 | 0.00 | 0.01 | 0.01 | 92 | 1013.6 |
| 20260905060537 | 59 | 273 | 1.0 | 3.0 | 0.00 | 0.01 | 0.01 | 92 | 1013.7 |
| 20260905060057 | 59 | 0 | 1.0 | 3.0 | 0.00 | 0.01 | 0.01 | 92 | 1013.7 |
| 20260905055537 | 59 | 271 | 1.0 | 3.0 | 0.00 | 0.01 | 0.01 | 92 | 1013.7 |
| 20260905055037 | 59 | 276 | 1.0 | 2.0 | 0.00 | 0.01 | 0.01 | 92 | 1013.8 |
| 20260905054555 | 59 | 244 | 0.0 | 2.0 | 0.00 | 0.01 | 0.01 | 92 | 1013.8 |
| 20260905054037 | 59 | 227 | 1.0 | 2.0 | 0.00 | 0.01 | 0.01 | 92 | 1013.8 |
| 20260905053538 | 59 | 276 | 0.0 | 2.0 | 0.00 | 0.01 | 0.01 | 92 | 1013.8 |
| 20260905053058 | 59 | 276 | 1.0 | 2.0 | 0.00 | 0.01 | 0.01 | 92 | 1013.8 |
| 20260905052537 | 59 | 0 | 0.0 | 2.0 | 0.00 | 0.01 | 0.01 | 92 | 1013.9 |
| 20260905052037 | 59 | 276 | 1.0 | 2.0 | 0.00 | 0.01 | 0.01 | 92 | 1013.9 |
| 20260905051550 | 59 | 276 | 0.0 | 2.0 | 0.00 | 0.01 | 0.01 | 91 | 1014.0 |
| 20260905051037 | 59 | 276 | 0.0 | 3.0 | 0.00 | 0.01 | 0.01 | 91 | 1014.0 |
| 20260905050537 | 59 | 276 | 0.0 | 3.0 | 0.00 | 0.01 | 0.01 | 92 | 1014.1 |
| 20260905050100 | 59 | 277 | 0.0 | 3.0 | 0.00 | 0.01 | 0.01 | 92 | 1014.1 |
| 20260905045536 | 59 | 292 | 1.0 | 2.0 | 0.00 | 0.01 | 0.01 | 91 | 1014.0 |
| 20260905045037 | 59 | 269 | 1.0 | 6.0 | 0.00 | 0.01 | 0.01 | 91 | 1014.1 |
| 20260905044603 | 59 | 269 | 1.0 | 6.0 | 0.00 | 0.01 | 0.01 | 91 | 1014.0 |
| 20260905044036 | 59 | 290 | 2.0 | 6.0 | 0.00 | 0.01 | 0.01 | 91 | 1013.9 |
| 20260905043539 | 59 | 275 | 2.0 | 6.0 | 0.00 | 0.01 | 0.01 | 91 | 1013.9 |
| 20260905043051 | 59 | 272 | 1.0 | 4.0 | 0.00 | 0.01 | 0.01 | 91 | 1014.0 |
| 20260905042540 | 59 | 280 | 2.0 | 4.0 | 0.00 | 0.01 | 0.01 | 91 | 1013.9 |
| 20260905042037 | 59 | 278 | 0.0 | 3.0 | 0.00 | 0.01 | 0.01 | 91 | 1013.8 |
| 20260905041553 | 60 | 252 | 1.0 | 3.0 | 0.00 | 0.01 | 0.01 | 91 | 1013.8 |
| 20260905041037 | 60 | 238 | 1.0 | 6.0 | 0.00 | 0.01 | 0.01 | 91 | 1013.8 |
| 20260905040540 | 60 | 238 | 1.0 | 6.0 | 0.00 | 0.01 | 0.01 | 91 | 1013.8 |
| 20260905040059 | 60 | 275 | 1.0 | 6.0 | 0.00 | 0.01 | 0.01 | 91 | 1013.7 |
| 20260905035538 | 60 | 281 | 1.0 | 3.0 | 0.00 | 0.07 | 0.01 | 91 | 1013.8 |
| 20260905035038 | 60 | 0 | 1.0 | 3.0 | 0.00 | 0.07 | 0.01 | 90 | 1013.7 |
| 20260905034554 | 60 | 278 | 1.0 | 3.0 | 0.00 | 0.07 | 0.01 | 90 | 1013.7 |
| 20260905034037 | 60 | 244 | 0.0 | 3.0 | 0.00 | 0.07 | 0.01 | 90 | 1013.6 |
| 20260905033537 | 60 | 244 | 1.0 | 3.0 | 0.00 | 0.07 | 0.01 | 90 | 1013.6 |
| 20260905033053 | 60 | 259 | 1.0 | 4.0 | 0.00 | 0.07 | 0.01 | 90 | 1013.6 |
| 20260905032537 | 60 | 248 | 1.0 | 4.0 | 0.00 | 0.07 | 0.01 | 90 | 1013.5 |
| 20260905032038 | 60 | 277 | 1.0 | 5.0 | 0.00 | 0.07 | 0.01 | 90 | 1013.4 |
| 20260905031550 | 60 | 273 | 2.0 | 6.0 | 0.00 | 0.07 | 0.01 | 90 | 1013.4 |
| 20260905031037 | 60 | 280 | 2.0 | 6.0 | 0.00 | 0.07 | 0.01 | 89 | 1013.4 |
| 20260905030537 | 60 | 271 | 2.0 | 6.0 | 0.00 | 0.07 | 0.01 | 89 | 1013.4 |
| 20260905030123 | 60 | 275 | 2.0 | 6.0 | 0.00 | 0.07 | 0.01 | 89 | 1013.5 |
| 20260905025538 | 60 | 281 | 2.0 | 4.0 | 0.00 | 0.16 | 0.01 | 89 | 1013.4 |
| 20260905025038 | 60 | 284 | 1.0 | 3.0 | 0.00 | 0.16 | 0.01 | 89 | 1013.4 |
| 20260905024552 | 61 | 275 | 1.0 | 6.0 | 0.00 | 0.16 | 0.01 | 89 | 1013.4 |
| 20260905024037 | 61 | 271 | 2.0 | 6.0 | 0.00 | 0.16 | 0.01 | 88 | 1013.4 |
| 20260905023536 | 61 | 314 | 2.0 | 6.0 | 0.00 | 0.16 | 0.01 | 88 | 1013.4 |
| 20260905023049 | 61 | 288 | 0.0 | 7.0 | 0.00 | 0.16 | 0.01 | 88 | 1013.4 |